Location: Krakow
(50.0830°N, 19.9170°E)
Time: 18:00:41
(UTC+01:00)

Vanguard 1 Rocket - Pass Details

Date: 21 December 2025
Orbit: 651 x 4216 km, 34.3° (Epoch: 19 January)

Event Time Altitude Azimuth Distance (km) Brightness Sun altitude
Rises 06:18:47 0° 235° (SW) 3,126 9.8 -11.6°
Reaches altitude 10° 06:22:46 10° 202° (SSW) 2,051 9.3 -11.1°
Maximum altitude 06:24:20 12° 180° (S) 1,936 9.4 -10.8°
Drops below altitude 10° 06:25:55 10° 159° (SSE) 2,072 9.9 -10.6°
Sets 06:30:00 0° 126° (SE) 3,207 12.2 -10.0°
